Weather History for Omak, WA

Change the Weather History Date:

Wednesday, November 30, 2011

  Actual Average Record
Temperature  
Mean Temperature 37 °F 30 °F  
Max Temperature 48 °F 37 °F 59 °F (2011)
Min Temperature 26 °F 23 °F -5 °F (2006)
Degree Days  
Heating Degree Days 28 35  
Month to date heating degree days 987 873  
Since 1 July heating degree days 1660 1533  
Cooling Degree Days 0 0  
Month to date cooling degree days 0 0  
Year to date cooling degree days 424 665  
Moisture  
Dew Point 21 °F    
Average Humidity 63    
Maximum Humidity 100    
Minimum Humidity 25    
Precipitation  
Precipitation 0.00 in 0.07 in 0.53 in (1973)
Month to date precipitation 0.62 1.81  
Year to date precipitation 10.05 12.51  
Sea Level Pressure  
Sea Level Pressure 30.50 in    
Wind  
Wind Speed 8 mph (NNW)    
Max Wind Speed 29 mph    
Max Gust Speed 41 mph    
Visibility 9 miles    
Events      
T = Trace of Precipitation, MM = Missing Value Source: NWS Daily Summary

Daily Weather History Graph

Daily Weather History Graph

Search for Another Location

Airport:

Trip Planner

Search our weather history database for the weather conditions in past years. The results will help you decide how hot, cold, wet, or windy it might be!

Date:

Astronomy

Nov. 30, 2011 Rise Set
Actual Time 7:27 AM PST 4:05 PM PST
Civil Twilight 6:51 AM PST 4:41 PM PST
Nautical Twilight 6:12 AM PST 5:21 PM PST
Astronomical Twilight 5:34 AM PST 5:58 PM PST
Moon 11:32 AM PST (11/30) 10:25 PM PST (11/30)
Length of Visible Light 9h 50m
Length of Day
8h 38m
Waxing Crescent, 34% of the Moon is Illuminated
Nov 30
Waxing Crescent
Dec 2
First Quarter
Dec 10
Full
Dec 17
Last Quarter
Dec 24
New

Hourly Weather History & Observations

Time (PST) Temp. Windchill Dew Point Humidity Pressure Visibility Wind Dir Wind Speed Gust Speed Precip Events Conditions
12:53 AM 34.0 °F - 30.0 °F 85% 30.20 in 9.0 mi Calm Calm - N/A   Overcast
1:21 AM 33.8 °F - 30.2 °F 87% 30.18 in 8.0 mi Calm Calm - N/A   Overcast
1:36 AM 33.8 °F - 28.4 °F 81% 30.19 in 8.0 mi Calm Calm - N/A   Mostly Cloudy
1:53 AM 32.0 °F - 28.9 °F 88% 30.22 in 4.0 mi Calm Calm - N/A   Scattered Clouds
2:53 AM 30.9 °F 27.5 °F 28.9 °F 92% 30.27 in 10.0 mi WNW 3.5 mph - N/A   Overcast
4:53 AM 28.9 °F 25.2 °F 27.0 °F 92% 30.32 in 7.0 mi NW 3.5 mph - N/A   Partly Cloudy
5:53 AM 27.0 °F - 26.1 °F 96% 30.35 in 8.0 mi Calm Calm - N/A   Partly Cloudy
6:53 AM 28.9 °F - 26.1 °F 89% 30.38 in 10.0 mi Calm Calm - N/A   Mostly Cloudy
7:53 AM 28.9 °F 21.1 °F 27.0 °F 92% 30.42 in 8.0 mi NNW 8.1 mph - N/A   Mostly Cloudy
8:53 AM 33.1 °F 27.7 °F 28.9 °F 85% 30.45 in 10.0 mi East 5.8 mph - N/A   Mostly Cloudy
9:53 AM 37.9 °F - 32.0 °F 79% 30.48 in 10.0 mi Calm Calm - N/A   Clear
10:53 AM 46.0 °F 39.6 °F 28.9 °F 51% 30.48 in 10.0 mi North 15.0 mph 21.9 mph N/A   Clear
11:53 AM 48.0 °F - 19.0 °F 32% 30.48 in 10.0 mi North - - N/A   Unknown
12:53 PM 48.0 °F - 17.1 °F 29% 30.51 in 10.0 mi North 27.6 mph 38.0 mph N/A   Clear
1:53 PM 48.0 °F - 15.1 °F 27% 30.56 in 10.0 mi North 21.9 mph 34.5 mph N/A   Clear
3:53 PM 44.1 °F 37.4 °F 10.9 °F 26% 30.66 in 10.0 mi North 13.8 mph 21.9 mph N/A   Clear
4:53 PM 41.0 °F 36.4 °F 10.0 °F 28% 30.70 in 10.0 mi North 6.9 mph 16.1 mph N/A   Clear
5:53 PM 41.0 °F 33.5 °F 10.9 °F 29% 30.72 in 10.0 mi NNW 13.8 mph 19.6 mph N/A   Clear
6:53 PM 37.9 °F 31.5 °F 12.0 °F 35% 30.75 in 10.0 mi NW 9.2 mph - N/A   Clear
7:53 PM 36.0 °F 28.0 °F 10.9 °F 36% 30.76 in 10.0 mi WNW 11.5 mph - N/A   Clear
8:53 PM 34.0 °F 26.6 °F 12.0 °F 40% 30.77 in 10.0 mi NNW 9.2 mph - N/A   Clear
9:53 PM 30.9 °F 22.2 °F 12.0 °F 46% 30.78 in 10.0 mi NNW 10.4 mph - N/A   Clear
11:53 PM 30.9 °F 23.5 °F 12.0 °F 46% 30.80 in 10.0 mi WNW 8.1 mph - N/A   Clear